GS0511 Weather Reports


time (UTC)temp
F
wind
direction
speed
knots
gust
knots
rain 1hr
in
rain 24hr
in
rain mn
in
humidity
%
barometer
mb
20260508080001 37 213 0.0 0.0 0.00 0.05 0.01 95 1012.3
20260508074458 37 213 0.0 0.0 0.00 0.05 0.01 94 1012.3
20260508072959 38 213 0.0 0.0 0.00 0.05 0.01 94 1012.3
20260508064457 39 213 0.0 0.9 0.00 0.05 0.01 93 1012.5
20260508061457 40 213 0.0 0.9 0.00 0.05 0.01 93 1012.5
20260508060001 41 213 0.0 0.9 0.00 0.05 0.01 93 1012.6
20260508054457 41 224 0.9 2.6 0.00 0.05 0.01 93 1012.6
20260508052958 42 221 0.9 3.5 0.01 0.05 0.01 93 1012.8
20260508051457 42 225 0.9 1.7 0.01 0.05 0.01 94 1012.8
20260508050004 42 225 0.0 1.7 0.01 0.05 0.01 93 1012.7
20260508044457 42 236 0.0 1.7 0.01 0.05 0.01 93 1012.8
20260508042957 42 236 0.0 0.0 0.01 0.04 0.00 93 1012.7
20260508041458 42 236 0.9 1.7 0.03 0.04 0.00 92 1012.6
20260508040006 43 236 0.9 2.6 0.03 0.04 0.00 92 1012.6
20260508034501 43 263 0.9 3.5 0.04 0.04 0.04 91 1012.7
20260508033002 43 275 0.9 2.6 0.03 0.03 0.03 91 1012.6
20260508031501 43 238 0.9 3.5 0.01 0.01 0.01 89 1012.8
20260508030007 43 313 1.7 6.1 0.01 0.01 0.01 87 1012.7
20260508024500 44 260 0.9 2.6 0.00 0.00 0.00 86 1012.8
20260508023000 44 277 0.9 2.6 0.00 0.00 0.00 84 1012.7
20260508021500 44 298 1.7 3.5 0.00 0.00 0.00 83 1012.8
20260508020004 45 279 1.7 3.5 0.00 0.00 0.00 82 1012.6
20260508014500 45 277 1.7 2.6 0.00 0.00 0.00 80 1012.5
20260508013000 45 296 1.7 3.5 0.00 0.00 0.00 79 1012.4
20260508010005 46 305 1.7 5.2 0.00 0.00 0.00 73 1012.1
20260508004500 46 274 0.0 2.6 0.00 0.00 0.00 73 1011.7
20260508003001 47 275 0.0 0.0 0.00 0.00 0.00 75 1011.5
20260508001500 47 333 0.0 0.0 0.00 0.00 0.00 71 1011.5
20260507234500 49 333 0.0 0.0 0.00 0.05 0.00 66 1011.3
20260507233000 49 333 0.9 2.6 0.00 0.05 0.00 61 1011.1
20260507231500 49 333 1.7 2.6 0.00 0.05 0.00 61 1011.2
20260507221500 50 323 0.9 4.3 0.00 0.13 0.00 60 1011.3
20260507220009 50 331 1.7 2.6 0.00 0.13 0.00 60 1011.4
20260507214500 50 19 1.7 4.3 0.00 0.13 0.00 60 1011.3
20260507213000 51 328 1.7 4.3 0.00 0.13 0.00 59 1011.3
20260507211500 52 39 1.7 4.3 0.00 0.13 0.00 59 1011.2
20260507210005 51 286 1.7 3.5 0.00 0.13 0.00 59 1011.2
20260507204501 51 86 1.7 4.3 0.00 0.13 0.00 62 1011.2
20260507203000 51 40 0.9 3.5 0.00 0.13 0.00 66 1011.2
20260507200004 51 28 1.7 4.3 0.00 0.13 0.00 65 1011.3
20260507193000 51 336 2.6 4.3 0.00 0.13 0.00 65 1011.7
20260507190005 51 11 3.5 7.8 0.00 0.13 0.00 66 1011.6
20260507184500 52 310 2.6 7.0 0.00 0.13 0.00 55 1011.7
20260507183000 53 299 2.6 6.1 0.00 0.13 0.00 57 1011.8
20260507181500 53 277 3.5 8.7 0.00 0.13 0.00 57 1011.7
20260507180004 54 360 2.6 7.8 0.00 0.13 0.00 54 1011.9
20260507174500 54 284 3.5 11.3 0.00 0.14 0.00 59 1011.9
20260507172959 53 291 2.6 10.4 0.00 0.14 0.00 60 1011.9
20260507164459 52 248 4.3 11.3 0.00 0.14 0.00 60 1012.5
20260507162959 51 265 3.5 9.6 0.00 0.14 0.00 58 1012.8
20260507161459 51 226 1.7 6.1 0.00 0.14 0.00 61 1012.8
20260507160005 50 286 2.6 7.8 0.00 0.14 0.00 62 1013.0
20260507154500 50 269 3.5 7.8 0.00 0.14 0.00 67 1013.1
20260507153000 48 227 3.5 7.0 0.00 0.14 0.00 66 1013.3
20260507151500 49 348 2.6 4.3 0.00 0.14 0.00 68 1013.4
20260507150002 48 350 2.6 5.2 0.00 0.14 0.00 70 1013.4
20260507144458 47 213 1.7 5.2 0.00 0.14 0.00 68 1013.5
20260507141459 46 77 1.7 4.3 0.00 0.14 0.00 68 1013.4
20260507140001 45 308 0.9 3.5 0.00 0.14 0.00 71 1013.5
20260507134459 44 327 0.9 4.3 0.00 0.18 0.00 75 1013.7
20260507132959 43 261 0.9 2.6 0.00 0.18 0.00 79 1013.9
20260507131458 42 223 0.0 1.7 0.00 0.18 0.00 82 1014.0
20260507130001 41 223 0.0 1.7 0.00 0.18 0.00 82 1014.1
20260507124459 41 323 0.0 0.9 0.00 0.21 0.00 87 1014.0
20260507122958 41 323 1.7 4.3 0.00 0.21 0.00 88 1014.0
20260507121459 41 280 0.0 1.7 0.00 0.21 0.00 97 1013.9
20260507120001 41 273 0.0 2.6 0.00 0.21 0.00 97 1014.1
20260507114458 41 183 0.0 0.9 0.00 0.26 0.00 98 1013.7
20260507112958 40 183 0.9 1.7 0.00 0.26 0.00 98 1013.8
20260507111459 40 183 0.0 0.9 0.00 0.26 0.00 98 1013.3
20260507110001 39 183 0.0 0.0 0.00 0.26 0.00 98 1013.3
20260507101458 37 247 0.0 0.0 0.00 0.31 0.00 97 1013.1
20260507100001 37 247 0.0 0.0 0.00 0.31 0.00 97 1013.1
20260507094459 36 247 0.0 0.0 0.00 0.36 0.00 97 1013.1
20260507092959 36 247 0.0 0.0 0.00 0.36 0.00 96 1013.0
20260507091458 36 247 0.0 0.0 0.00 0.36 0.00 96 1013.2
20260507090002 36 247 0.0 0.0 0.00 0.36 0.00 96 1013.1
20260507084458 37 247 0.0 0.0 0.00 0.41 0.00 96 1012.8
20260507081458 37 247 0.0 0.0 0.00 0.41 0.00 96 1013.3